Find Starlink 31611

NORAD ID: 59325 Int'l Des: 2024-057 Owner: SPXS Country: US Constellation: starlink operational
LEOCIRCULAR

当前视图

正在加载3D地球...

About Starlink 31611

Starlink 31611 (NORAD 59325) is a starlink constellation satellite (v2 mini) launched Mar 25, 2024 by SPXS of US. It operates in LEO, CIRCULAR orbit with a mass of 730.00 kg.

关于 Starlink 31611

正在加载描述...

即将过境

Passes for default location (London). Set your location on the main map for personalized predictions.

高度历史

Loading altitude history...

两行轨道根数

1 59325U 24057F 26173.69568110 .00000638 00000-0 32734-4 0 9997
2 59325 43.0026 314.4658 0002584 280.5967 79.4594 15.27584379125892
Epoch: Jun 22, 2026 • Age: 21 hours

当前状态

高度 488.0 km
速度 7.62 km/s
星下点 -23.27°S, 34.46°E
发射日期 Mar 25, 2024
运行时间 2.2 years
类型 internet

技术详情

分类 Payload
质量 730.00 kg
干质量 700.00 kg
总质量 730.00 kg
长度 0.30 m
直径 4.10 m
跨度 29.00 m
形状 Box + pan
制造商 SPXS
平台类型 Starlink V2M
阶段状态 In Orbit
所有者/国家 SPXS/US

Most Searched